User: anonymous   Login
Location: Unspecified
(0.0000°N, 0.0000°E)
Time: 08:48:43
(UTC+00:00)
Language:

CANX-2 - Orbit

View from above orbital plane
View from above orbital plane
View from above satellite
View from above satellite

Ground track
Ground track

The orbit data is extracted from the following two-line orbital elements,

1 32790U 08021H   19345.52190522  .00000171  00000-0  24201-4 0  9992
2 32790  97.5646 335.1877 0014857  47.4066 312.8402 14.88061786629754
Epoch (UTC): 11 December 2019 12:31:32
Eccentricity: 0.0014857
inclination: 97.5646°
perigee height: 593 km
apogee height: 614 km
right ascension of ascending node: 335.1877°
argument of perigee: 47.4066°
revolutions per day: 14.88061786
mean anomaly at epoch: 312.8402°
orbit number at epoch: 62975

The dashed part of the orbit path shows where the satellite is in the earth's shadow,  

DLR